DW6162 Weather Reports


time (UTC)temp
C
wind
direction
speed
KPH
gust
KPH
rain 1hr
cm
rain 24hr
cm
rain mn
cm
humidity
%
barometer
mb
20260509011503 7 148 0.0 3.2 0.05 0.23 0.10 93 1012.4
20260509010651 7 137 1.6 3.2 0.05 0.25 0.10 93 1010.6
20260509010105 7 106 1.6 4.8 0.05 0.23 0.10 93 1012.2
20260509005750 7 148 3.2 6.4 0.05 0.25 0.10 93 1010.6
20260509004850 7 148 4.8 8.0 0.05 0.25 0.10 92 1010.5
20260509004505 7 142 3.2 8.0 0.05 0.25 0.10 91 1012.0
20260509003950 8 136 4.8 11.3 0.03 0.23 0.08 90 1010.5
20260509003105 8 154 1.6 6.4 0.00 0.20 0.05 88 1011.9
20260509003051 8 142 1.6 6.4 0.00 0.20 0.05 88 1010.5
20260509002150 8 144 0.0 3.2 0.00 0.20 0.05 86 1010.4
20260509001505 8 143 0.0 1.6 0.00 0.20 0.05 85 1011.7
20260509001250 9 132 0.0 1.6 0.00 0.20 0.05 85 1010.2
20260508235452 9 133 0.0 3.2 0.00 0.20 0.05 83 1010.0
20260508234506 9 173 0.0 3.2 0.00 0.20 0.05 82 1011.5
20260508233120 9 100 1.6 6.4 0.00 0.20 0.05 82 1011.4
20260508232750 9 105 1.6 3.2 0.00 0.20 0.05 82 1009.9
20260508231850 10 109 3.2 9.7 0.00 0.20 0.05 80 1009.7
20260508231503 9 123 1.6 8.0 0.00 0.20 0.05 80 1011.2
20260508230951 10 116 3.2 8.0 0.00 0.20 0.05 79 1009.6
20260508230107 10 135 1.6 6.4 0.00 0.20 0.05 79 1010.9
20260508224503 10 75 1.6 6.4 0.00 0.20 0.05 77 1011.1
20260508224250 10 140 3.2 12.9 0.00 0.20 0.05 77 1009.5
20260508223350 10 160 6.4 16.1 0.00 0.20 0.05 76 1009.3
20260508223102 10 200 6.4 16.1 0.00 0.20 0.05 74 1010.8
20260508222451 11 156 6.4 16.1 0.00 0.20 0.05 71 1009.2
20260508221550 12 128 1.6 4.8 0.00 0.20 0.05 59 1009.1
20260508221503 12 128 1.6 4.8 0.00 0.20 0.05 59 1010.7
20260508220650 12 326 1.6 6.4 0.00 0.20 0.05 57 1009.1
20260508220103 12 214 1.6 8.0 0.00 0.20 0.05 57 1010.6
20260508214850 13 159 4.8 9.7 0.00 0.20 0.05 58 1009.1
20260508214502 12 172 4.8 9.7 0.00 0.20 0.05 59 1010.6
20260508213950 13 169 3.2 9.7 0.00 0.20 0.05 58 1009.1
20260508213103 12 153 1.6 8.0 0.00 0.20 0.05 62 1010.7
20260508212150 12 354 1.6 4.8 0.00 0.20 0.05 62 1009.2
20260508211502 11 311 1.6 8.0 0.00 0.20 0.05 63 1010.8
20260508211250 12 331 3.2 8.0 0.00 0.20 0.05 63 1009.2
20260508210351 11 347 3.2 8.0 0.00 0.20 0.05 63 1009.2
20260508210108 11 322 3.2 8.0 0.00 0.20 0.05 61 1010.8
20260508205450 12 333 3.2 6.4 0.00 0.20 0.05 62 1009.3
20260508204550 12 345 3.2 16.1 0.00 0.20 0.05 61 1009.3
20260508204506 11 191 1.6 14.5 0.00 0.20 0.05 61 1010.9
20260508203650 12 355 1.6 4.8 0.00 0.20 0.05 68 1009.4
20260508203106 12 98 0.0 6.4 0.00 0.20 0.05 66 1011.0
20260508201850 12 150 1.6 4.8 0.00 0.20 0.05 66 1009.7
20260508201502 11 153 0.0 4.8 0.00 0.20 0.05 65 1011.2
20260508200950 12 141 3.2 8.0 0.00 0.20 0.05 66 1009.7
20260508200103 11 111 3.2 8.0 0.00 0.20 0.05 69 1011.4
20260508200051 12 149 3.2 8.0 0.00 0.20 0.05 69 1009.9
20260508195151 11 55 1.6 4.8 0.00 0.20 0.05 76 1010.1
20260508194503 10 25 0.0 6.4 0.00 0.20 0.05 76 1011.6
20260508194250 10 136 3.2 6.4 0.00 0.20 0.05 74 1010.0
20260508193350 11 134 4.8 8.0 0.00 0.20 0.05 76 1010.1
20260508193116 10 135 3.2 8.0 0.00 0.20 0.05 74 1011.7
20260508192450 10 163 4.8 14.5 0.00 0.20 0.05 71 1010.2
20260508191551 11 207 4.8 11.3 0.00 0.20 0.05 70 1010.0
20260508191503 11 158 1.6 12.9 0.00 0.20 0.05 71 1011.6
20260508190650 11 344 4.8 20.9 0.00 0.20 0.05 66 1010.3
20260508185750 11 336 4.8 9.7 0.00 0.20 0.05 66 1010.4
20260508184503 11 304 4.8 12.9 0.00 0.20 0.05 67 1012.0
20260508183950 11 336 8.0 14.5 0.00 0.20 0.05 65 1010.4
20260508183106 10 328 3.2 12.9 0.00 0.20 0.05 68 1012.1
20260508183050 10 329 6.4 14.5 0.00 0.20 0.05 68 1010.4
20260508182150 10 325 6.4 14.5 0.00 0.20 0.05 69 1010.5
20260508181510 10 336 8.0 22.5 0.00 0.20 0.05 68 1012.1
20260508181250 10 330 8.0 22.5 0.00 0.20 0.05 69 1010.5
20260508180350 10 329 6.4 12.9 0.00 0.20 0.05 69 1010.7
20260508180105 10 323 4.8 14.5 0.00 0.20 0.05 68 1012.3
20260508175450 10 334 8.0 19.3 0.00 0.20 0.05 69 1010.9
20260508174550 10 327 8.0 16.1 0.00 0.20 0.05 68 1010.8
20260508174503 10 336 8.0 16.1 0.00 0.20 0.05 67 1012.4
20260508173103 10 85 4.8 16.1 0.00 0.20 0.05 72 1012.4
20260508172750 10 332 8.0 14.5 0.00 0.20 0.05 69 1010.9
20260508171850 10 346 6.4 12.9 0.00 0.20 0.05 71 1011.2
20260508171503 9 323 4.8 12.9 0.00 0.20 0.05 73 1012.7
20260508170957 10 328 6.4 12.9 0.00 0.20 0.05 71 1011.3
20260508164506 8 4 3.2 14.5 0.00 0.20 0.05 80 1013.0
20260508163350 8 330 4.8 16.1 0.00 0.20 0.05 81 1011.3
20260508163103 7 293 4.8 14.5 0.00 0.20 0.05 79 1013.1
20260508162450 7 327 6.4 11.3 0.00 0.20 0.05 80 1011.7
20260508161550 7 322 6.4 14.5 0.00 0.20 0.05 81 1011.7
20260508161505 7 5 6.4 14.5 0.00 0.20 0.05 80 1013.3
20260508155750 6 341 4.8 12.9 0.00 0.20 0.05 88 1012.0
20260508154850 6 317 1.6 9.7 0.03 0.20 0.05 90 1012.1
20260508153950 6 340 3.2 9.7 0.03 0.20 0.05 93 1012.0
20260508153103 5 115 0.0 4.8 0.03 0.20 0.05 93 1013.6
20260508153050 5 133 1.6 4.8 0.03 0.20 0.05 93 1012.0
20260508152150 5 144 1.6 8.0 0.03 0.20 0.05 92 1011.9
20260508151502 5 120 1.6 3.2 0.03 0.20 0.05 92 1013.4
20260508151250 6 191 1.6 3.2 0.03 0.20 0.05 92 1011.8
20260508150103 5 202 0.0 3.2 0.03 0.20 0.05 94 1013.2
20260508145450 5 129 1.6 4.8 0.03 0.20 0.05 93 1011.6
20260508144550 5 123 0.0 4.8 0.00 0.18 0.03 92 1011.8
20260508144503 5 143 0.0 3.2 0.00 0.18 0.03 92 1013.4
20260508143650 5 103 0.0 3.2 0.00 0.18 0.03 92 1011.6
20260508143104 5 120 0.0 4.8 0.00 0.18 0.03 90 1013.1
20260508142750 5 125 1.6 3.2 0.00 0.18 0.03 90 1011.5
20260508141850 6 142 3.2 6.4 0.00 0.18 0.03 90 1011.3
20260508141503 6 144 1.6 8.0 0.00 0.18 0.03 89 1012.8
20260508140950 6 152 3.2 8.0 0.00 0.18 0.03 89 1011.2
20260508140035 6 151 1.6 9.7 0.00 0.18 0.03 90 1012.9
20260508135644 4 157 1.6 3.2 0.00 0.18 0.03 93 1011.4
20260508134549 3 134 1.6 1.6 0.00 0.18 0.03 93 1011.4
20260508134540 5 188 0.0 6.4 0.00 0.18 0.03 91 1013.0
20260508133709 3 131 0.0 3.2 0.00 0.18 0.03 93 1011.4
20260508133152 5 170 1.6 4.8 0.00 0.18 0.03 91 1013.0
20260508132857 3 123 1.6 3.2 0.00 0.18 0.03 93 1011.3
20260508131635 3 123 1.6 3.2 0.00 0.18 0.03 93 1011.3
20260508131531 4 235 1.6 8.0 0.00 0.18 0.03 92 1012.9
20260508130726 3 323 1.6 1.6 0.00 0.18 0.03 93 1011.3
20260508130113 3 184 1.6 4.8 0.00 0.18 0.03 93 1013.0
20260508125834 3 149 1.6 4.8 0.00 0.18 0.03 96 1011.3
20260508124903 3 149 1.6 4.8 0.00 0.18 0.03 96 1011.3
20260508124528 3 128 0.0 6.4 0.00 0.18 0.03 93 1013.0
20260508124132 3 149 1.6 4.8 0.00 0.18 0.03 96 1011.3
20260508123925 3 149 1.6 4.8 0.00 0.18 0.03 96 1011.3
20260508123007 3 200 0.0 4.8 0.00 0.18 0.03 95 1012.7
20260508122355 1 0 0.0 0.0 0.00 0.18 0.03 97 1010.9
20260508121526 2 137 1.6 6.4 0.00 0.18 0.03 97 1012.6
20260508121416 0 154 0.0 1.6 0.03 0.18 0.03 96 1011.0
20260508120416 0 0 0.0 0.0 0.03 0.18 0.03 96 1010.9
20260508120120 1 145 0.0 1.6 0.00 0.18 0.03 97 1012.9
20260508115717 0 136 0.0 1.6 0.03 0.18 0.03 96 1011.0
20260508114646 0 136 0.0 1.6 0.03 0.18 0.03 96 1010.8
20260508114542 0 164 0.0 1.6 0.03 0.18 0.03 96 1012.8
20260508113703 0 115 0.0 1.6 0.03 0.18 0.03 96 1010.8
20260508113152 0 144 0.0 1.6 0.03 0.18 0.03 96 1012.8
20260508112854 0 0 0.0 0.0 0.03 0.18 0.03 96 1011.0
20260508112540 0 202 1.6 3.2 0.03 0.18 0.03 96 1011.1
20260508111513 0 158 0.0 1.6 0.03 0.18 0.03 96 1013.1
20260508111137 0 202 0.0 3.2 0.00 0.15 0.00 96 1011.3
20260508110433 0 0 0.0 0.0 0.00 0.15 0.00 96 1011.1
20260508105406 0 0 0.0 0.0 0.00 0.15 0.00 96 1011.0
20260508104613 0 152 0.0 1.6 0.00 0.15 0.00 96 1012.8
20260508104452 0 150 0.0 1.6 0.00 0.15 0.00 96 1010.9
20260508102513 0 0 0.0 0.0 0.00 0.15 0.00 96 1010.6
20260508101722 0 185 1.6 3.2 0.00 0.15 0.00 95 1010.5
20260508101513 0 150 0.0 1.6 0.00 0.15 0.00 96 1012.3
20260508100713 0 173 1.6 3.2 0.00 0.15 0.00 95 1010.5
20260508100012 0 150 0.0 1.6 0.00 0.15 0.00 96 1012.5
20260508095817 0 173 0.0 1.6 0.00 0.15 0.00 95 1010.9
20260508095338 0 172 0.0 1.6 0.00 0.15 0.00 95 1010.9
20260508094505 0 151 0.0 4.8 0.00 0.15 0.00 96 1012.5
20260508093311 1 171 0.0 1.6 0.00 0.15 0.00 94 1010.9
20260508093003 0 174 0.0 3.2 0.00 0.15 0.00 95 1012.6
20260508092312 1 171 0.0 1.6 0.00 0.15 0.00 94 1010.9
20260508091621 0 172 0.0 1.6 0.00 0.15 0.00 95 1012.6
20260508091331 1 14 1.6 3.2 0.00 0.15 0.00 94 1011.0
20260508085506 2 0 0.0 0.0 0.00 0.15 0.00 93 1011.0
20260508084628 1 321 1.6 1.6 0.00 0.15 0.00 95 1010.8
20260508084506 1 8 0.0 1.6 0.00 0.15 0.00 93 1012.5
20260508083717 1 304 0.0 1.6 0.00 0.15 0.00 95 1010.7
20260508083118 1 281 0.0 1.6 0.00 0.15 0.00 93 1012.6
20260508082824 1 6 0.0 1.6 0.00 0.15 0.00 94 1010.9
20260508082456 1 6 0.0 1.6 0.00 0.15 0.00 95 1010.9
20260508081520 1 281 0.0 4.8 0.00 0.15 0.00 95 1012.5
20260508080454 1 190 1.6 4.8 0.00 0.15 0.00 95 1010.8
20260508080108 0 294 0.0 1.6 0.00 0.15 0.00 95 1012.4
20260508075351 1 174 1.6 4.8 0.00 0.15 0.00 94 1010.8
20260508074606 1 6 0.0 3.2 0.00 0.15 0.00 95 1012.5
20260508074548 1 161 0.0 1.6 0.00 0.15 0.00 94 1010.8
20260508073620 1 120 0.0 1.6 0.00 0.15 0.00 94 1010.8
20260508073047 1 200 0.0 1.6 0.00 0.15 0.00 95 1012.5
20260508071621 1 112 0.0 1.6 0.00 0.15 0.00 94 1012.6
20260508071601 1 0 0.0 0.0 0.00 0.15 0.00 94 1010.9
20260508070855 1 0 0.0 0.0 0.00 0.15 0.00 94 1011.0
20260508070601 1 0 0.0 0.0 0.00 0.15 0.00 94 1011.0
20260508070142 1 136 0.0 3.2 0.00 0.15 0.00 94 1012.6
20260508065618 1 0 0.0 0.0 0.00 0.15 0.00 93 1010.9
20260508064608 1 246 0.0 1.6 0.00 0.15 0.00 94 1012.6
20260508063527 2 133 0.0 3.2 0.00 0.15 0.00 92 1011.1
20260508063041 1 105 0.0 1.6 0.00 0.15 0.00 93 1012.6
20260508062248 2 109 0.0 1.6 0.00 0.15 0.00 92 1011.2
20260508061504 2 0 0.0 0.0 0.00 0.15 0.00 92 1011.3
20260508060744 2 0 0.0 0.0 0.00 0.15 0.00 92 1011.3
20260508060053 1 117 0.0 1.6 0.00 0.15 0.00 93 1013.0
20260508055704 2 95 0.0 1.6 0.00 0.15 0.00 92 1011.2
20260508054659 2 82 0.0 1.6 0.00 0.15 0.00 92 1011.1
20260508054509 1 181 0.0 3.2 0.00 0.15 0.00 93 1012.8
20260508053716 2 270 0.0 3.2 0.00 0.15 0.00 92 1011.1
20260508053116 1 248 0.0 1.6 0.00 0.15 0.00 92 1012.8
20260508052938 2 289 1.6 3.2 0.00 0.15 0.00 92 1011.1
20260508051530 2 114 0.0 1.6 0.00 0.15 0.00 92 1012.7
20260508051000 2 44 1.6 4.8 0.00 0.15 0.00 92 1011.0
20260508050459 2 2 1.6 3.2 0.00 0.15 0.00 93 1011.0
20260508050147 2 210 0.0 3.2 0.00 0.15 0.00 92 1012.6
20260508045423 2 166 0.0 1.6 0.00 0.15 0.00 93 1011.0
20260508044531 2 0 0.0 0.0 0.00 0.15 0.00 94 1011.1
20260508044528 2 106 1.6 6.4 0.00 0.15 0.00 92 1012.6
20260508043055 2 315 0.0 8.0 0.00 0.15 0.00 93 1012.5
20260508042650 2 7 1.6 3.2 0.00 0.15 0.00 95 1010.9
20260508041616 2 15 0.0 3.2 0.00 0.15 0.00 96 1010.9
20260508041519 2 105 0.0 3.2 0.00 0.15 0.00 94 1012.4
20260508035813 2 13 0.0 1.6 0.00 0.15 0.15 96 1011.0
20260508034521 2 273 0.0 1.6 0.00 0.15 0.15 96 1012.5
20260508034002 2 0 0.0 0.0 0.00 0.15 0.15 96 1011.0
20260508033317 3 0 0.0 0.0 0.00 0.15 0.15 95 1010.9
20260508032316 3 0 0.0 0.0 0.00 0.15 0.15 95 1011.0
20260508031522 2 169 0.0 1.6 0.00 0.15 0.15 95 1012.5
20260508031303 3 173 0.0 1.6 0.00 0.15 0.15 94 1011.1
20260508030452 3 0 0.0 0.0 0.00 0.15 0.15 94 1011.1
20260508025505 3 0 0.0 0.0 0.03 0.15 0.15 94 1011.1
20260508024622 4 151 0.0 1.6 0.05 0.15 0.15 94 1011.1
20260508024609 3 138 0.0 1.6 0.00 0.15 0.15 94 1012.6
20260508023723 4 67 1.6 3.2 0.08 0.15 0.15 93 1011.1
20260508023107 3 138 0.0 1.6 0.03 0.15 0.15 94 1012.5
20260508021552 3 96 0.0 4.8 0.05 0.15 0.15 93 1012.6
20260508021049 4 337 3.2 4.8 0.15 0.15 0.15 92 1011.1
20260508020154 4 62 1.6 3.2 0.15 0.15 0.15 92 1011.2
20260508020118 3 74 0.0 4.8 0.10 0.15 0.15 93 1012.7
20260508015342 5 318 1.6 4.8 0.13 0.13 0.13 91 1011.1
20260508014512 4 236 4.8 9.7 0.15 0.15 0.15 92 1012.5
20260508013434 5 299 4.8 8.0 0.05 0.05 0.05 87 1010.8
20260508013157 4 323 0.0 3.2 0.13 0.13 0.13 92 1012.3
20260508012533 7 292 4.8 9.7 0.00 0.00 0.00 73 1010.8